When you browse on this site, cookies collect data to enhance your experience and personalize the content and advertising you see.
Visit our Privacy Policy to learn more. By continuing to use the site, you agree to this use of cookies and data.
  • In Sweden
  • List of Countries
  • For 7 days
  • Water Temperature
  • Weather Map
  • Weather Widgets
  • user-avatar
    Login

    Hourly Weather Kalinovka

    Today, 26 August, Monday

    Time Temperature Precipitation Wind Pressure Humidity
    00:00 +17°C° 0 mm 3 mps 743 mmHg 61%
    01:00 +17°C° 0 mm 3 mps 743 mmHg 64%
    02:00 +16°C° 0 mm 3 mps 743 mmHg 67%
    03:00 +16°C° 0 mm 2 mps 743 mmHg 71%
    04:00 +15°C° 0 mm 2 mps 743 mmHg 74%
    05:00 +15°C° 0 mm 2 mps 743 mmHg 78%
    06:00 +17°C° 0 mm 2 mps 743 mmHg 74%
    07:00 +19°C° 0 mm 3 mps 743 mmHg 70%
    08:00 +20°C° 0 mm 3 mps 743 mmHg 67%
    09:00 +22°C° 0 mm 3 mps 744 mmHg 59%
    10:00 +25°C° 0 mm 3 mps 744 mmHg 52%
    11:00 +27°C° 0 mm 4 mps 744 mmHg 45%
    12:00 +28°C° 0 mm 3 mps 744 mmHg 42%
    13:00 +28°C° 0 mm 3 mps 743 mmHg 40%
    14:00 +29°C° 0 mm 3 mps 743 mmHg 37%
    15:00 +29°C° 0 mm 3 mps 743 mmHg 39%
    16:00 +28°C° 0 mm 3 mps 743 mmHg 41%
    17:00 +28°C° 0 mm 3 mps 742 mmHg 42%
    18:00 +26°C° 0 mm 3 mps 742 mmHg 50%
    19:00 +24°C° 0 mm 3 mps 742 mmHg 57%
    20:00 +21°C° 0 mm 3 mps 742 mmHg 65%
    21:00 +20°C° 0 mm 3 mps 742 mmHg 66%
    22:00 +19°C° 0 mm 3 mps 742 mmHg 67%
    23:00 +18°C° 0 mm 3 mps 742 mmHg 68%

    Tomorrow, 27 August, Tuesday

    Time Temperature Precipitation Wind Pressure Humidity
    00:00 +18°C° 0 mm 3 mps 742 mmHg 68%
    01:00 +17°C° 0 mm 2 mps 742 mmHg 68%
    02:00 +17°C° 0 mm 2 mps 742 mmHg 69%
    03:00 +17°C° 0 mm 2 mps 742 mmHg 70%
    04:00 +16°C° 0 mm 2 mps 742 mmHg 71%
    05:00 +16°C° 0 mm 2 mps 742 mmHg 73%
    06:00 +18°C° 0 mm 2 mps 742 mmHg 68%
    07:00 +19°C° 0 mm 2 mps 742 mmHg 63%
    08:00 +21°C° 0 mm 2 mps 743 mmHg 58%
    09:00 +24°C° 0 mm 2 mps 743 mmHg 53%
    10:00 +26°C° 0 mm 2 mps 743 mmHg 48%
    11:00 +27°C° 0 mm 3 mps 743 mmHg 43%
    12:00 +28°C° 0 mm 3 mps 742 mmHg 41%
    13:00 +28°C° 0 mm 2 mps 742 mmHg 39%
    14:00 +29°C° 0 mm 2 mps 742 mmHg 37%
    15:00 +29°C° 0 mm 3 mps 742 mmHg 40%
    16:00 +28°C° 0 mm 3 mps 742 mmHg 42%
    17:00 +28°C° 0 mm 3 mps 741 mmHg 44%
    18:00 +25°C° 0 mm 3 mps 741 mmHg 51%
    19:00 +22°C° 0 mm 3 mps 742 mmHg 58%
    20:00 +20°C° 0 mm 2 mps 742 mmHg 65%
    21:00 +19°C° 0 mm 2 mps 742 mmHg 67%
    22:00 +19°C° 0 mm 2 mps 742 mmHg 69%
    23:00 +18°C° 0 mm 2 mps 742 mmHg 71%

    Day after tomorrow, 28 August, Wednesday

    Time Temperature Precipitation Wind Pressure Humidity
    00:00 +18°C° 0 mm 2 mps 742 mmHg 72%
    01:00 +17°C° 0 mm 2 mps 742 mmHg 74%
    02:00 +16°C° 0 mm 2 mps 742 mmHg 76%
    03:00 +16°C° 0 mm 2 mps 742 mmHg 78%
    04:00 +15°C° 0 mm 1 mps 742 mmHg 79%
    05:00 +15°C° 0 mm 1 mps 742 mmHg 81%
    06:00 +18°C° 0 mm 1 mps 742 mmHg 76%
    07:00 +20°C° 0 mm 1 mps 742 mmHg 70%
    08:00 +22°C° 0 mm 1 mps 742 mmHg 65%
    09:00 +23°C° 0 mm 2 mps 742 mmHg 59%
    10:00 +25°C° 0 mm 2 mps 742 mmHg 54%
    11:00 +26°C° 0 mm 2 mps 742 mmHg 48%
    12:00 +27°C° 0 mm 3 mps 742 mmHg 46%
    13:00 +28°C° 0 mm 3 mps 741 mmHg 43%
    14:00 +28°C° 0 mm 3 mps 741 mmHg 40%
    15:00 +28°C° 0 mm 3 mps 741 mmHg 42%
    16:00 +27°C° 0 mm 3 mps 741 mmHg 44%
    17:00 +27°C° 0 mm 3 mps 741 mmHg 45%
    18:00 +25°C° 0 mm 3 mps 741 mmHg 54%
    19:00 +22°C° 0 mm 3 mps 741 mmHg 62%
    20:00 +20°C° 0 mm 3 mps 740 mmHg 70%
    21:00 +19°C° 0 mm 3 mps 741 mmHg 71%
    22:00 +18°C° 0 mm 3 mps 741 mmHg 73%
    23:00 +17°C° 0 mm 3 mps 741 mmHg 74%

    29 August, Thursday

    Time Temperature Precipitation Wind Pressure Humidity
    00:00 +17°C° 0 mm 3 mps 741 mmHg 73%
    01:00 +16°C° 0 mm 3 mps 741 mmHg 71%
    02:00 +16°C° 0 mm 3 mps 741 mmHg 70%
    03:00 +14°C° 0 mm 3 mps 741 mmHg 72%
    04:00 +13°C° 0 mm 3 mps 741 mmHg 74%
    05:00 +13°C° 0 mm 3 mps 741 mmHg 76%
    06:00 +14°C° 0 mm 3 mps 741 mmHg 71%
    07:00 +17°C° 0 mm 3 mps 741 mmHg 67%
    08:00 +18°C° 0 mm 4 mps 741 mmHg 62%
    09:00 +20°C° 0 mm 4 mps 741 mmHg 56%
    10:00 +22°C° 0 mm 4 mps 741 mmHg 50%
    11:00 +23°C° 0 mm 4 mps 741 mmHg 44%
    12:00 +25°C° 0 mm 4 mps 741 mmHg 41%
    13:00 +26°C° 0 mm 4 mps 741 mmHg 39%
    14:00 +26°C° 0 mm 4 mps 741 mmHg 36%
    15:00 +26°C° 0 mm 4 mps 740 mmHg 37%
    16:00 +26°C° 0 mm 4 mps 740 mmHg 38%
    17:00 +25°C° 0 mm 4 mps 740 mmHg 38%
    18:00 +22°C° 0 mm 4 mps 740 mmHg 41%
    19:00 +20°C° 0 mm 4 mps 740 mmHg 45%
    20:00 +18°C° 0 mm 4 mps 740 mmHg 48%
    21:00 +17°C° 0 mm 4 mps 740 mmHg 45%
    22:00 +15°C° 0 mm 4 mps 740 mmHg 43%
    23:00 +14°C° 0 mm 4 mps 740 mmHg 41%

    30 August, Friday

    Time Temperature Precipitation Wind Pressure Humidity
    00:00 +13°C° 0 mm 4 mps 740 mmHg 42%
    01:00 +13°C° 0 mm 3 mps 740 mmHg 43%
    02:00 +12°C° 0 mm 3 mps 740 mmHg 44%
    03:00 +11°C° 0 mm 3 mps 740 mmHg 45%
    04:00 +11°C° 0 mm 3 mps 740 mmHg 46%
    05:00 +11°C° 0 mm 3 mps 740 mmHg 48%
    06:00 +12°C° 0 mm 3 mps 740 mmHg 46%
    07:00 +14°C° 0 mm 4 mps 741 mmHg 45%
    08:00 +17°C° 0 mm 4 mps 741 mmHg 44%
    09:00 +19°C° 0 mm 4 mps 741 mmHg 40%
    10:00 +21°C° 0 mm 4 mps 741 mmHg 35%
    11:00 +22°C° 0 mm 4 mps 741 mmHg 31%
    12:00 +23°C° 0 mm 4 mps 741 mmHg 30%
    13:00 +25°C° 0 mm 4 mps 741 mmHg 28%
    14:00 +26°C° 0 mm 4 mps 741 mmHg 27%
    15:00 +26°C° 0 mm 3 mps 741 mmHg 29%
    16:00 +25°C° 0 mm 3 mps 741 mmHg 32%
    17:00 +25°C° 0 mm 3 mps 740 mmHg 35%
    18:00 +22°C° 0 mm 3 mps 740 mmHg 40%
    19:00 +20°C° 0 mm 2 mps 740 mmHg 44%
    20:00 +18°C° 0 mm 2 mps 740 mmHg 49%
    21:00 +17°C° 0 mm 2 mps 741 mmHg 52%
    22:00 +16°C° 0 mm 3 mps 741 mmHg 55%
    23:00 +16°C° 0 mm 3 mps 741 mmHg 58%

    31 August, Saturday

    Time Temperature Precipitation Wind Pressure Humidity
    00:00 +14°C° 0 mm 3 mps 741 mmHg 60%
    01:00 +14°C° 0 mm 3 mps 741 mmHg 61%
    02:00 +14°C° 0 mm 2 mps 741 mmHg 63%
    03:00 +14°C° 0 mm 2 mps 741 mmHg 65%
    04:00 +14°C° 0 mm 2 mps 741 mmHg 68%
    05:00 +13°C° 0 mm 2 mps 741 mmHg 70%
    06:00 +14°C° 0 mm 3 mps 741 mmHg 66%
    07:00 +17°C° 0 mm 3 mps 741 mmHg 62%
    08:00 +19°C° 0 mm 3 mps 742 mmHg 58%
    09:00 +21°C° 0 mm 4 mps 742 mmHg 52%
    10:00 +23°C° 0 mm 4 mps 742 mmHg 47%
    11:00 +26°C° 0 mm 4 mps 742 mmHg 41%
    12:00 +26°C° 0 mm 4 mps 742 mmHg 39%
    13:00 +27°C° 0 mm 4 mps 742 mmHg 36%
    14:00 +28°C° 0 mm 4 mps 741 mmHg 34%
    15:00 +27°C° 0 mm 3 mps 741 mmHg 35%
    16:00 +27°C° 0 mm 3 mps 741 mmHg 35%
    17:00 +27°C° 0 mm 3 mps 740 mmHg 36%
    18:00 +25°C° 0 mm 3 mps 740 mmHg 40%
    19:00 +22°C° 0 mm 3 mps 740 mmHg 43%
    20:00 +19°C° 0 mm 3 mps 740 mmHg 47%
    21:00 +19°C° 0 mm 3 mps 740 mmHg 47%
    22:00 +18°C° 0 mm 3 mps 740 mmHg 47%
    23:00 +17°C° 0 mm 3 mps 740 mmHg 48%
    Show more